BMI06T EGJJ-EGCC

Flight info

Callsign BMI06T
Flight time 1h 1m
Altitude 19000
Route BENIX3B BENIX G27 AKIKI/N0418F320 UN867 GARMI/N0417F340 UN867 AVANT UM184 HEMEL T420 ELVOS ELVOS1M
Aircraft B733/M-SDE2E3FHIRW/S

Departure

Time 2026-05-05 20:00
Airport Jersey Airport (EGJJ)

Arrival

Time 2026-05-05 21:01
Airport Manchester Airport (EGCC)
Time Latitude Longitude Altitude Speed Heading
2026-05-05 19:28 49.20560 -2.19638 273 ft 0 kts 160°
2026-05-05 19:49 49.20562 -2.19640 272 ft 1 kts 161°
2026-05-05 19:49 49.20572 -2.19645 273 ft 2 kts 154°
2026-05-05 19:49 49.20584 -2.19657 273 ft 2 kts 141°
2026-05-05 19:50 49.20595 -2.19673 273 ft 2 kts 128°
2026-05-05 19:50 49.20603 -2.19692 272 ft 2 kts 116°
2026-05-05 19:50 49.20609 -2.19713 272 ft 2 kts 103°
2026-05-05 19:50 49.20611 -2.19736 272 ft 2 kts 91°
2026-05-05 19:51 49.20610 -2.19750 272 ft 1 kts 84°
2026-05-05 19:51 49.20611 -2.19738 272 ft 1 kts 85°
2026-05-05 19:51 49.20611 -2.19736 272 ft 0 kts 85°
2026-05-05 19:54 49.20612 -2.19731 272 ft 1 kts 85°
2026-05-05 19:54 49.20615 -2.19703 272 ft 4 kts 66°
2026-05-05 19:54 49.20638 -2.19670 273 ft 5 kts 31°
2026-05-05 19:55 49.20672 -2.19639 273 ft 5 kts 34°
2026-05-05 19:55 49.20690 -2.19582 273 ft 7 kts 79°
2026-05-05 19:55 49.20700 -2.19496 273 ft 9 kts 78°
2026-05-05 19:55 49.20708 -2.19389 273 ft 10 kts 94°
2026-05-05 19:56 49.20689 -2.19278 273 ft 11 kts 105°
2026-05-05 19:56 49.20677 -2.19154 273 ft 12 kts 86°
2026-05-05 19:56 49.20687 -2.19018 273 ft 13 kts 83°
2026-05-05 19:56 49.20699 -2.18870 272 ft 14 kts 82°
2026-05-05 19:57 49.20712 -2.18716 272 ft 15 kts 83°
2026-05-05 19:57 49.20725 -2.18553 272 ft 15 kts 84°
2026-05-05 19:57 49.20737 -2.18404 272 ft 13 kts 82°
2026-05-05 19:57 49.20777 -2.18317 273 ft 10 kts 11°
2026-05-05 19:58 49.20843 -2.18364 273 ft 10 kts 327°
2026-05-05 19:58 49.20885 -2.18391 273 ft 4 kts 317°
2026-05-05 19:58 49.20888 -2.18425 273 ft 0 kts 263°
2026-05-05 19:58 49.20887 -2.18428 273 ft 0 kts 263°
2026-05-05 19:59 49.20885 -2.18458 273 ft 21 kts 262°
2026-05-05 20:00 49.20832 -2.19116 273 ft 101 kts 264°
2026-05-05 20:00 49.20712 -2.20514 278 ft 163 kts 261°
2026-05-05 20:00 49.20531 -2.22256 872 ft 168 kts 265°
2026-05-05 20:00 49.20304 -2.24001 1566 ft 174 kts 256°
2026-05-05 20:01 49.19727 -2.25719 1888 ft 189 kts 234°
2026-05-05 20:01 49.18756 -2.27055 2303 ft 196 kts 212°
2026-05-05 20:01 49.17415 -2.27761 2460 ft 215 kts 176°
2026-05-05 20:01 49.16016 -2.26999 2823 ft 215 kts 140°
2026-05-05 20:02 49.14896 -2.25530 3373 ft 213 kts 127°
2026-05-05 20:02 49.14089 -2.23678 3888 ft 211 kts 108°
2026-05-05 20:02 49.13814 -2.21525 4365 ft 210 kts 86°
2026-05-05 20:02 49.13784 -2.19246 4768 ft 221 kts 88°
2026-05-05 20:03 49.13729 -2.16873 5272 ft 229 kts 88°
2026-05-05 20:03 49.13662 -2.14441 5963 ft 231 kts 89°
2026-05-05 20:03 49.13587 -2.12009 6666 ft 233 kts 89°
2026-05-05 20:03 49.13507 -2.09556 7354 ft 235 kts 89°
2026-05-05 20:04 49.13423 -2.07073 8021 ft 237 kts 89°
2026-05-05 20:04 49.13336 -2.04559 8697 ft 240 kts 89°
2026-05-05 20:04 49.13246 -2.02045 9363 ft 242 kts 90°
2026-05-05 20:04 49.13149 -1.99410 9697 ft 260 kts 90°
2026-05-05 20:05 49.13088 -1.96553 9975 ft 278 kts 83°
2026-05-05 20:05 49.13497 -1.93606 10126 ft 297 kts 65°
2026-05-05 20:05 49.14650 -1.90854 10334 ft 314 kts 46°
2026-05-05 20:05 49.16156 -1.88382 10908 ft 323 kts 46°
2026-05-05 20:06 49.17675 -1.85878 11634 ft 325 kts 46°
2026-05-05 20:06 49.19223 -1.83318 12350 ft 329 kts 46°
2026-05-05 20:06 49.20763 -1.80774 13042 ft 333 kts 46°
2026-05-05 20:06 49.22582 -1.78517 13702 ft 337 kts 31°
2026-05-05 20:07 49.24601 -1.76690 14369 ft 341 kts 31°
2026-05-05 20:07 49.26648 -1.74833 15096 ft 344 kts 31°
2026-05-05 20:07 49.28693 -1.72967 15766 ft 348 kts 31°
2026-05-05 20:07 49.30800 -1.71040 16460 ft 351 kts 31°
2026-05-05 20:08 49.32891 -1.69125 17126 ft 355 kts 31°
2026-05-05 20:08 49.35023 -1.67169 17749 ft 359 kts 31°
2026-05-05 20:08 49.37186 -1.65182 18394 ft 362 kts 31°
2026-05-05 20:08 49.39348 -1.63193 19002 ft 366 kts 31°
2026-05-05 20:09 49.41532 -1.61182 19617 ft 369 kts 31°
2026-05-05 20:09 49.43750 -1.59138 20217 ft 372 kts 31°
2026-05-05 20:09 49.45967 -1.57092 20785 ft 376 kts 31°
2026-05-05 20:09 49.48200 -1.55029 21360 ft 378 kts 31°
2026-05-05 20:10 49.50462 -1.52938 21925 ft 381 kts 31°
2026-05-05 20:10 49.52736 -1.50832 22479 ft 384 kts 31°
2026-05-05 20:10 49.54962 -1.48541 22997 ft 387 kts 40°
2026-05-05 20:10 49.56869 -1.45583 23489 ft 391 kts 45°
2026-05-05 20:11 49.58982 -1.42974 23940 ft 394 kts 28°
2026-05-05 20:11 49.61542 -1.41481 24383 ft 400 kts 11°
2026-05-05 20:11 49.64328 -1.41082 24876 ft 404 kts
2026-05-05 20:11 49.67133 -1.40909 25338 ft 408 kts
2026-05-05 20:12 49.69980 -1.40700 25834 ft 411 kts
2026-05-05 20:12 49.72832 -1.40465 26290 ft 414 kts
2026-05-05 20:12 49.75752 -1.40214 26743 ft 418 kts
2026-05-05 20:12 49.78642 -1.39961 27176 ft 422 kts
2026-05-05 20:13 49.81569 -1.39703 27619 ft 425 kts
2026-05-05 20:13 49.84513 -1.39442 28043 ft 428 kts
2026-05-05 20:13 49.87505 -1.39177 28557 ft 429 kts
2026-05-05 20:13 49.90485 -1.38912 29159 ft 428 kts
2026-05-05 20:14 49.93415 -1.38653 29748 ft 426 kts
2026-05-05 20:14 49.96373 -1.38389 30277 ft 426 kts
2026-05-05 20:14 49.99332 -1.38122 30750 ft 427 kts
2026-05-05 20:14 50.02274 -1.37581 31136 ft 428 kts
2026-05-05 20:15 50.05245 -1.36813 31576 ft 428 kts 10°
2026-05-05 20:15 50.08158 -1.36059 31866 ft 429 kts
2026-05-05 20:15 50.11109 -1.35314 31949 ft 427 kts
2026-05-05 20:16 50.16972 -1.33840 31958 ft 425 kts 10°
2026-05-05 20:16 50.22844 -1.32362 31961 ft 426 kts 10°
2026-05-05 20:17 50.28724 -1.30895 31952 ft 426 kts 10°
2026-05-05 20:17 50.34574 -1.29429 31960 ft 428 kts 10°
2026-05-05 20:18 50.40441 -1.27955 31958 ft 429 kts 10°
2026-05-05 20:18 50.46312 -1.26476 31954 ft 429 kts 10°
2026-05-05 20:19 50.52046 -1.24084 31964 ft 427 kts 32°
2026-05-05 20:19 50.57027 -1.18919 32052 ft 431 kts 34°
2026-05-05 20:19 50.59568 -1.16399 32465 ft 430 kts 33°
2026-05-05 20:20 50.62111 -1.13880 32918 ft 429 kts 33°
2026-05-05 20:20 50.64627 -1.11369 33377 ft 427 kts 33°
2026-05-05 20:20 50.67113 -1.08876 33800 ft 425 kts 33°
2026-05-05 20:20 50.69595 -1.06380 34201 ft 424 kts 33°
2026-05-05 20:21 50.72092 -1.03867 34594 ft 424 kts 33°
2026-05-05 20:21 50.74551 -1.01387 34950 ft 423 kts 33°
2026-05-05 20:21 50.77043 -0.98872 35262 ft 422 kts 33°
2026-05-05 20:21 50.79488 -0.96400 35504 ft 421 kts 33°
2026-05-05 20:22 50.81997 -0.93928 35718 ft 421 kts 27°
2026-05-05 20:22 50.84701 -0.92232 35894 ft 422 kts 18°
2026-05-05 20:22 50.87517 -0.90860 35972 ft 424 kts 17°
2026-05-05 20:23 50.93210 -0.88040 35985 ft 425 kts 18°
2026-05-05 20:23 50.98809 -0.85157 35955 ft 423 kts 18°
2026-05-05 20:24 51.04441 -0.82235 35950 ft 424 kts 18°
2026-05-05 20:24 51.10020 -0.79331 35953 ft 425 kts 18°
2026-05-05 20:25 51.15629 -0.76417 35941 ft 425 kts 18°
2026-05-05 20:25 51.21274 -0.73469 35949 ft 426 kts 18°
2026-05-05 20:26 51.26926 -0.70506 35957 ft 427 kts 18°
2026-05-05 20:26 51.32568 -0.67540 35963 ft 427 kts 18°
2026-05-05 20:27 51.38209 -0.64567 35967 ft 428 kts 18°
2026-05-05 20:27 51.43847 -0.61588 35958 ft 429 kts 18°
2026-05-05 20:28 51.49526 -0.58579 35972 ft 429 kts 18°
2026-05-05 20:28 51.55208 -0.55561 35957 ft 429 kts 18°
2026-05-05 20:29 51.60864 -0.52548 35966 ft 430 kts 18°
2026-05-05 20:29 51.66565 -0.49504 35971 ft 430 kts 18°
2026-05-05 20:30 51.72272 -0.46448 35964 ft 431 kts 18°
2026-05-05 20:30 51.77971 -0.43409 35972 ft 431 kts 15°
2026-05-05 20:30 51.80889 -0.42815 35956 ft 429 kts 353°
2026-05-05 20:31 51.83760 -0.44028 35967 ft 427 kts 330°
2026-05-05 20:31 51.88628 -0.49431 35983 ft 425 kts 323°
2026-05-05 20:32 51.93603 -0.54611 35977 ft 425 kts 327°
2026-05-05 20:32 51.96128 -0.57100 35790 ft 423 kts 327°
2026-05-05 20:32 51.98652 -0.59571 35862 ft 424 kts 327°
2026-05-05 20:33 52.03719 -0.64532 35977 ft 428 kts 327°
2026-05-05 20:33 52.08796 -0.69513 35988 ft 425 kts 327°
2026-05-05 20:34 52.13859 -0.74480 35964 ft 424 kts 327°
2026-05-05 20:34 52.16349 -0.76930 35672 ft 425 kts 327°
2026-05-05 20:34 52.18913 -0.79462 34758 ft 439 kts 327°
2026-05-05 20:34 52.21544 -0.82064 33554 ft 445 kts 326°
2026-05-05 20:35 52.24185 -0.84679 32657 ft 444 kts 326°
2026-05-05 20:35 52.26797 -0.87269 31891 ft 442 kts 326°
2026-05-05 20:35 52.29400 -0.89856 31088 ft 440 kts 326°
2026-05-05 20:35 52.31999 -0.92441 30247 ft 438 kts 326°
2026-05-05 20:36 52.34588 -0.95015 29420 ft 435 kts 326°
2026-05-05 20:36 52.37132 -0.97554 28622 ft 431 kts 326°
2026-05-05 20:36 52.39693 -1.00113 27823 ft 427 kts 326°
2026-05-05 20:36 52.42182 -1.02602 27253 ft 418 kts 326°
2026-05-05 20:37 52.44647 -1.05067 26724 ft 409 kts 326°
2026-05-05 20:37 52.47043 -1.07468 26193 ft 400 kts 326°
2026-05-05 20:37 52.49428 -1.09864 25615 ft 405 kts 326°
2026-05-05 20:37 52.51858 -1.12315 24971 ft 410 kts 326°
2026-05-05 20:38 52.54256 -1.14730 24407 ft 402 kts 326°
2026-05-05 20:38 52.56631 -1.17124 23850 ft 394 kts 326°
2026-05-05 20:38 52.58931 -1.19443 23313 ft 387 kts 326°
2026-05-05 20:38 52.61225 -1.21761 22779 ft 379 kts 326°
2026-05-05 20:39 52.63460 -1.24022 22260 ft 377 kts 326°
2026-05-05 20:39 52.65702 -1.26292 21733 ft 388 kts 326°
2026-05-05 20:39 52.68012 -1.28632 21211 ft 382 kts 326°
2026-05-05 20:39 52.70186 -1.30841 20690 ft 375 kts 326°
2026-05-05 20:40 52.72440 -1.33137 20152 ft 367 kts 326°
2026-05-05 20:40 52.74607 -1.35343 19637 ft 361 kts 327°
2026-05-05 20:40 52.76718 -1.37488 19148 ft 362 kts 327°
2026-05-05 20:40 52.78894 -1.39710 18652 ft 369 kts 326°
2026-05-05 20:41 52.81067 -1.41927 18137 ft 362 kts 327°
2026-05-05 20:41 52.83183 -1.44094 17634 ft 356 kts 327°
2026-05-05 20:41 52.85280 -1.46243 17119 ft 350 kts 327°
2026-05-05 20:41 52.87318 -1.48327 16648 ft 343 kts 326°
2026-05-05 20:42 52.89363 -1.50431 16191 ft 348 kts 327°
2026-05-05 20:42 52.91454 -1.52577 15702 ft 353 kts 327°
2026-05-05 20:42 52.93524 -1.54702 15195 ft 346 kts 327°
2026-05-05 20:42 52.95541 -1.56775 14725 ft 339 kts 327°
2026-05-05 20:43 52.97527 -1.58820 14244 ft 333 kts 327°
2026-05-05 20:43 52.99491 -1.60845 13782 ft 329 kts 327°
2026-05-05 20:43 53.01446 -1.62871 13339 ft 340 kts 328°
2026-05-05 20:43 53.03444 -1.64930 12857 ft 335 kts 327°
2026-05-05 20:44 53.05391 -1.67103 12375 ft 329 kts 318°
2026-05-05 20:44 53.06903 -1.69868 11918 ft 322 kts 310°
2026-05-05 20:44 53.08337 -1.72677 11515 ft 314 kts 310°
2026-05-05 20:44 53.09736 -1.75395 11390 ft 304 kts 310°
2026-05-05 20:45 53.12268 -1.80285 11362 ft 273 kts 311°
2026-05-05 20:45 53.13484 -1.82643 11328 ft 258 kts 310°
2026-05-05 20:45 53.14611 -1.84832 11339 ft 242 kts 310°
2026-05-05 20:46 53.15693 -1.86940 11321 ft 239 kts 310°
2026-05-05 20:46 53.16788 -1.89071 11333 ft 241 kts 310°
2026-05-05 20:46 53.17880 -1.91195 11328 ft 238 kts 310°
2026-05-05 20:46 53.18950 -1.93286 11304 ft 239 kts 310°
2026-05-05 20:47 53.20029 -1.95417 11302 ft 238 kts 310°
2026-05-05 20:47 53.21109 -1.97519 11301 ft 238 kts 310°
2026-05-05 20:47 53.22165 -1.99577 11129 ft 227 kts 310°
2026-05-05 20:47 53.23159 -2.01520 10841 ft 216 kts 311°
2026-05-05 20:48 53.24126 -2.03401 10371 ft 212 kts 310°
2026-05-05 20:48 53.25071 -2.05253 9816 ft 210 kts 310°
2026-05-05 20:48 53.25928 -2.07219 9122 ft 217 kts 294°
2026-05-05 20:48 53.26170 -2.09796 8021 ft 241 kts 263°
2026-05-05 20:49 53.25532 -2.12382 7304 ft 243 kts 237°
2026-05-05 20:49 53.24682 -2.14462 7201 ft 254 kts 237°
2026-05-05 20:49 53.23666 -2.16939 7065 ft 259 kts 237°
2026-05-05 20:49 53.22646 -2.19436 6961 ft 261 kts 237°
2026-05-05 20:50 53.21628 -2.21937 6956 ft 259 kts 237°
2026-05-05 20:50 53.20620 -2.24424 6917 ft 263 kts 237°
2026-05-05 20:50 53.19577 -2.26989 6558 ft 265 kts 237°
2026-05-05 20:50 53.18562 -2.29501 6215 ft 258 kts 237°
2026-05-05 20:51 53.17573 -2.31954 5847 ft 255 kts 237°
2026-05-05 20:51 53.16596 -2.34379 5446 ft 251 kts 237°
2026-05-05 20:51 53.15625 -2.36785 5007 ft 249 kts 237°
2026-05-05 20:51 53.14652 -2.39195 4579 ft 246 kts 237°
2026-05-05 20:52 53.13717 -2.41512 4216 ft 241 kts 237°
2026-05-05 20:52 53.12787 -2.43816 3853 ft 237 kts 237°
2026-05-05 20:52 53.11873 -2.46083 3492 ft 235 kts 237°
2026-05-05 20:52 53.10962 -2.48338 3131 ft 231 kts 237°
2026-05-05 20:53 53.10083 -2.50508 2975 ft 218 kts 238°
2026-05-05 20:53 53.09551 -2.52720 2934 ft 198 kts 272°
2026-05-05 20:53 53.09888 -2.54883 2982 ft 193 kts 311°
2026-05-05 20:53 53.10852 -2.56348 3008 ft 186 kts 328°
2026-05-05 20:54 53.11901 -2.57602 2993 ft 185 kts 329°
2026-05-05 20:54 53.12954 -2.58805 2968 ft 183 kts 337°
2026-05-05 20:54 53.14161 -2.59124 2949 ft 176 kts 16°
2026-05-05 20:54 53.15347 -2.58522 2977 ft 177 kts 20°
2026-05-05 20:55 53.16516 -2.57854 2989 ft 177 kts 20°
2026-05-05 20:55 53.17676 -2.57193 2985 ft 176 kts 20°
2026-05-05 20:55 53.18835 -2.56534 2976 ft 176 kts 20°
2026-05-05 20:55 53.19996 -2.55877 2976 ft 176 kts 20°
2026-05-05 20:56 53.21173 -2.55211 2978 ft 176 kts 21°
2026-05-05 20:56 53.22242 -2.54279 2980 ft 175 kts 38°
2026-05-05 20:56 53.23167 -2.52916 2981 ft 175 kts 46°
2026-05-05 20:56 53.23956 -2.51389 2984 ft 175 kts 51°
2026-05-05 20:57 53.24693 -2.49757 2979 ft 176 kts 53°
2026-05-05 20:57 53.25428 -2.48095 2978 ft 175 kts 52°
2026-05-05 20:57 53.26167 -2.46472 2965 ft 176 kts 51°
2026-05-05 20:57 53.26931 -2.44857 2782 ft 175 kts 51°
2026-05-05 20:58 53.27677 -2.43317 2519 ft 164 kts 50°
2026-05-05 20:58 53.28345 -2.41949 2321 ft 145 kts 50°
2026-05-05 20:58 53.28961 -2.40688 2047 ft 133 kts 50°
2026-05-05 20:58 53.29527 -2.39530 1865 ft 127 kts 50°
2026-05-05 20:59 53.30085 -2.38388 1719 ft 126 kts 50°
2026-05-05 20:59 53.30637 -2.37252 1549 ft 127 kts 50°
2026-05-05 20:59 53.31197 -2.36098 1369 ft 127 kts 50°
2026-05-05 20:59 53.31761 -2.34938 1193 ft 127 kts 50°
2026-05-05 21:00 53.32317 -2.33793 1021 ft 128 kts 50°
2026-05-05 21:00 53.32882 -2.32633 843 ft 128 kts 50°
2026-05-05 21:00 53.33448 -2.31469 670 ft 129 kts 51°
2026-05-05 21:00 53.34015 -2.30291 487 ft 128 kts 51°
2026-05-05 21:01 53.34575 -2.29128 323 ft 127 kts 51°
2026-05-05 21:01 53.35139 -2.27980 233 ft 125 kts 51°
2026-05-05 21:01 53.35604 -2.27017 251 ft 82 kts 51°
2026-05-05 21:01 53.35798 -2.26677 255 ft 13 kts
2026-05-05 21:02 53.35871 -2.26695 255 ft 7 kts 350°
2026-05-05 21:02 53.35883 -2.26699 254 ft 1 kts 350°
2026-05-05 21:02 53.35892 -2.26701 254 ft 0 kts 350°
2026-05-05 21:02 53.35897 -2.26703 254 ft 0 kts 349°
2026-05-05 21:03 53.35907 -2.26706 254 ft 2 kts 349°
2026-05-05 21:03 53.35916 -2.26709 254 ft 0 kts 350°
2026-05-05 21:04 53.35921 -2.26710 254 ft 2 kts 350°
2026-05-05 21:04 53.35955 -2.26721 254 ft 6 kts 346°
2026-05-05 21:05 53.35997 -2.26758 253 ft 7 kts 322°
2026-05-05 21:05 53.36043 -2.26812 253 ft 6 kts 319°
2026-05-05 21:05 53.36064 -2.26843 252 ft 0 kts 313°
2026-05-05 21:05 53.36066 -2.26846 252 ft 0 kts 313°